Location: Cartignies
(50.0929°N, 3.8447°E)
Time: 13:52:07
(UTC+00:00)

NOSS 3-4 (C) - Pass Details

Date: 12 January 2026
Orbit: 773 x 1438 km, 63.4° (Epoch: 26 December)

Event Time Altitude Azimuth Distance (km) Brightness Sun altitude
Rises 17:32:15 0° 185° (S) 3,236 6.6 -13.2°
Reaches altitude 10° 17:34:51 10° 174° (S) 2,328 5.6 -13.6°
Maximum altitude 17:39:20 29° 115° (ESE) 1,467 4.1 -14.2°
Enters shadow 17:41:36 22° 78° (ENE) 1,776 4.2 -14.6°
